Location: Gerlach
(40.6516°N, 119.3568°W)
Time: 21:35:15
(UTC-08:00)

Vanguard 1 - Visible Passes

Search period start: 05 February 2023 00:00
Search period end: 15 February 2023 00:00
Orbit: 650 x 3831 km, 34.2° (Epoch: 05 February)

Date Brightness Start Highest point End Pass type
(mag) Time Alt. Az. Time Alt. Az. Time Alt. Az.
05 Feb 11.5 03:48:40 34° SSE 03:48:40 34° SSE 03:57:09 10° E visible
05 Feb 11.6 06:01:21 11° WSW 06:08:57 62° S 06:23:28 10° E visible
06 Feb 11.1 04:08:16 41° SSE 04:08:53 42° SSE 04:18:20 10° E visible
06 Feb 11.7 06:21:40 10° WSW 06:29:36 62° S 06:44:36 10° ESE visible
07 Feb 10.8 04:27:49 43° SSW 04:29:16 49° SSE 04:39:27 10° E visible
08 Feb 12.7 02:34:41 12° ESE 02:34:41 12° ESE 02:35:27 10° E visible
08 Feb 10.8 04:47:22 39° SW 04:49:44 54° S 05:00:31 10° E visible
09 Feb 12.4 02:54:14 18° ESE 02:54:14 18° ESE 02:56:43 10° E visible
09 Feb 11.0 05:06:55 31° WSW 05:10:17 57° S 05:21:35 10° E visible
10 Feb 11.9 03:13:45 25° ESE 03:13:45 25° ESE 03:17:46 10° E visible
10 Feb 11.1 05:26:26 23° WSW 05:30:52 57° S 05:42:35 10° ESE visible
11 Feb 11.4 03:33:17 34° ESE 03:33:17 34° ESE 03:38:45 10° E visible
11 Feb 11.3 05:45:58 16° WSW 05:51:29 54° S 06:03:30 10° ESE visible
12 Feb 10.9 03:52:48 44° SE 03:52:48 44° SE 03:59:42 10° E visible
12 Feb 11.5 06:05:29 11° W 06:12:08 49° S 06:24:17 10° ESE visible
13 Feb 10.5 04:12:19 50° SSE 04:12:19 50° SSE 04:20:35 10° ESE visible
13 Feb 11.8 06:25:57 10° W 06:32:48 43° SSW 06:44:52 10° SE visible
14 Feb 10.4 04:31:50 48° SSW 04:32:37 50° S 04:41:26 10° ESE visible
